[[{"header":{"parameterUnit":"m.s-1","parameterCategory":1,"la1":30.2991,"la2":30.254,"lo1":-89.0895,"lo2":-89.0444,"dx":0.0017,"dy":0.0017,"nx":28,"ny":28,"refTime":"2023-01-17T09:00:00:Z","depth":0,"parameterNumber":2,"parameterNumberName":"U-component_of_WINDS"},"data":[0,0,0,0,0,0,0,0,0,0,0,0,0,0,0,0,0,0,0,0,0,0,0,0,0,0,0,0,0,0,0,0,0,0,0,0,0,0,0,0,0,0,0,0,0,0,0,0,0,0,0,0,0,0,0,0,0,0,-1.7669,-1.767,0,-1.7701,-1.7701,-1.7702,-1.7676,-1.7675,-1.7674,-1.7673,-1.7708,-1.771,-1.7712,0,0,0,0,0,0,0,0,0,0,0,0,0,-1.7589,-1.7591,-1.7669,-1.767,-1.767,-1.7701,-1.7701,-1.7702,-1.7677,-1.7675,-1.7674,-1.7673,-1.7708,-1.771,-1.7712,0,0,0,0,0,0,0,0,0,0,0,0,0,-1.7623,-1.7591,-1.7669,-1.7661,-1.7661,-1.7701,-1.7701,-1.7702,-1.7677,-1.7675,-1.7674,-1.7672,-1.7707,-1.771,-1.7712,-1.7763,0,0,-1.7721,-1.7723,0,0,0,0,0,0,0,0,-1.7621,-1.7626,-1.7662,-1.7662,-1.7661,-1.7683,-1.7686,-1.7722,-1.7677,-1.7671,-1.7673,-1.7671,-1.7701,-1.7705,-1.7714,-1.7764,-1.7766,-1.7722,-1.7723,-1.7725,-1.7725,0,0,0,0,0,0,0,-1.7619,-1.7624,-1.7682,-1.7662,-1.7662,-1.7657,-1.766,-1.7693,-1.7695,-1.7671,-1.7669,-1.7673,-1.7701,-1.7711,-1.7715,-1.7767,-1.7722,-1.7724,-1.7726,-1.7727,-1.7859,-1.7861,0,0,0,0,0,0,-1.7617,-1.7623,-1.7681,-1.7683,-1.7637,-1.7659,-1.7663,-1.7678,-1.7694,-1.7695,-1.7675,-1.7672,-1.7707,-1.7711,-1.7716,-1.7775,-1.7725,-1.7727,-1.7729,-1.7858,-1.786,-1.7862,0,0,0,0,0,0,-1.7615,-1.7622,-1.7679,-1.7652,-1.7659,-1.7663,-1.768,-1.7679,-1.769,-1.7697,-1.7698,-1.7685,-1.7706,-1.7712,-1.7751,-1.7776,-1.7729,-1.7731,-1.7856,-1.7858,-1.7861,-1.7894,0,0,0,0,0,0,-1.7613,-1.7622,-1.764,-1.7653,-1.7661,-1.7713,-1.7681,-1.7681,-1.7694,-1.7691,-1.7707,-1.7708,-1.7705,-1.7747,-1.7754,-1.7779,-1.7734,-1.7853,-1.7857,-1.786,-1.7891,-1.7898,-1.7903,0,0,0,0,0,-1.761,-1.7649,-1.7641,-1.7649,-1.7684,-1.7715,-1.7719,-1.7715,-1.7697,-1.7715,-1.772,-1.7707,-1.7772,-1.7751,-1.7759,-1.7785,-1.7852,-1.7856,-1.786,-1.7888,-1.7896,-1.7903,0,0,0,0,0,0,-1.764,-1.7651,-1.7642,-1.7686,-1.77,-1.771,-1.7734,-1.7724,-1.7744,-1.774,-1.7735,-1.7739,-1.778,-1.7787,-1.7763,-1.7835,-1.7809,-1.7815,-1.7828,-1.7836,-1.7842,-1.7839,-1.7736,0,0,0,0,0,-1.7652,-1.7676,-1.7684,-1.7722,-1.7729,-1.7731,-1.7744,-1.774,-1.7754,-1.776,-1.7767,-1.7782,-1.7806,-1.7822,-1.7844,-1.7892,-1.7895,-1.7914,-1.7921,-1.7926,-1.793,-1.7956,-1.7964,-1.7875,-1.7875,-1.7875,0,0,-1.7677,-1.7685,-1.7701,-1.7728,-1.7738,-1.7763,-1.7736,-1.7764,-1.7782,-1.7764,-1.7801,-1.7807,-1.7824,-1.7867,-1.7887,-1.7875,-1.7956,-1.7931,-1.7935,-1.7937,-1.7961,-1.7969,-1.7977,-1.7877,-1.7877,-1.7877,0,0,-1.7733,-1.7743,-1.7775,-1.7785,-1.78,-1.7801,-1.7809,-1.7822,-1.7825,-1.7862,-1.7848,-1.7871,-1.7913,-1.7924,-1.7936,-1.7998,-1.7987,-1.8006,-1.8038,-1.8063,-1.807,-1.8076,-1.8097,-1.8105,-1.8011,-1.8011,-1.8011,0,-1.7762,-1.7798,-1.7793,-1.7821,-1.7834,-1.7818,-1.7851,-1.7862,-1.7884,-1.7893,-1.7879,-1.793,-1.794,-1.7986,-1.8001,-1.8011,-1.802,-1.8003,-1.8069,-1.8075,-1.8081,-1.8101,-1.8109,-1.8013,-1.8013,-1.8012,-1.8012,0,-1.7832,-1.7858,-1.7882,-1.7902,-1.7918,-1.7949,-1.7948,-1.7965,-1.796,-1.7962,-1.8,-1.8012,-1.8036,-1.8047,-1.8042,-1.8092,-1.8084,-1.807,-1.8044,-1.8092,-1.811,-1.8118,-1.8016,-1.8015,-1.8015,-1.8014,0,0,-1.7908,-1.7925,-1.7934,-1.7942,-1.7958,-1.7978,-1.8009,-1.8031,-1.8045,-1.8062,-1.8086,-1.8122,-1.8109,-1.8122,-1.8119,-1.8141,-1.8188,-1.8124,-1.8124,-1.8134,-1.8242,-1.8251,-1.826,-1.8181,-1.8183,-1.8184,-1.824,0,-1.7964,-1.8015,-1.8011,-1.8059,-1.8083,-1.8069,-1.8095,-1.8108,-1.8112,-1.8133,-1.8137,-1.8162,-1.8143,-1.8151,-1.8172,-1.8178,-1.8209,-1.8174,-1.8204,-1.8205,-1.8198,-1.827,-1.828,-1.8333,-1.8248,-1.8249,-1.825,0,-1.8036,-1.8053,-1.8104,-1.8115,-1.8125,-1.8148,-1.8169,-1.8189,-1.8204,-1.8205,-1.822,-1.8213,-1.8244,-1.8219,-1.8262,-1.8238,-1.825,-1.8255,-1.8257,-1.8258,-1.8229,-1.8272,-1.835,-1.8357,-1.8262,-1.8261,-1.826,0,-1.8084,-1.812,-1.8155,-1.8163,-1.8178,-1.8195,-1.8202,-1.8215,-1.8229,-1.8247,-1.8256,-1.8279,-1.8291,-1.8309,-1.8308,-1.829,-1.8351,-1.8326,-1.8353,-1.8353,-1.8365,-1.8364,-1.8444,-1.8376,-1.8376,-1.8376,-1.8376,0,-1.8146,-1.8177,-1.8176,-1.8197,-1.8232,-1.8228,-1.8262,-1.8268,-1.828,-1.8302,-1.8293,-1.8314,-1.8313,-1.8336,-1.8336,-1.8371,-1.8377,-1.8379,-1.8378,-1.8378,-1.8378,-1.8385,-1.8381,-1.8378,-1.8377,-1.8377,-1.8377,0,-1.8205,-1.8205,-1.8242,-1.8253,-1.8257,-1.8281,-1.8291,-1.8311,-1.8315,-1.8343,-1.835,-1.8355,-1.838,-1.8382,-1.8412,-1.8412,-1.8454,-1.8451,-1.8448,-1.8447,-1.8473,-1.847,-1.8559,-1.857,-1.8497,-1.8498,-1.8498,0,-1.8243,-1.8266,-1.828,-1.8293,-1.8301,-1.8324,-1.8337,-1.8335,-1.835,-1.8369,-1.8387,-1.8411,-1.843,-1.8472,-1.8479,-1.8502,-1.8497,-1.8527,-1.8501,-1.85,-1.8496,-1.8494,-1.8496,-1.8532,-1.8533,-1.8533,-1.8534,0,-1.8311,-1.831,-1.833,-1.8349,-1.8366,-1.8381,-1.8396,-1.8408,-1.8408,-1.8425,-1.845,-1.8465,-1.8495,-1.8519,-1.8542,-1.855,-1.8542,-1.8542,-1.8549,-1.8549,-1.8546,-1.8546,-1.846,-1.854,-1.8539,-1.8539,-1.8538,-1.8538,-1.836,-1.8379,-1.8391,-1.8413,-1.8424,-1.8438,-1.8457,-1.8462,-1.8483,-1.8506,-1.8504,-1.8532,-1.8547,-1.8576,-1.8586,-1.8608,-1.8598,-1.8609,-1.8611,-1.8614,-1.8615,-1.8544,-1.8613,-1.8613,-1.8613,-1.8612,-1.8612,0,-1.8426,-1.8433,-1.8453,-1.8473,-1.849,-1.8481,-1.8497,-1.8512,-1.8536,-1.855,-1.8569,-1.8598,-1.8621,-1.863,-1.8653,-1.867,-1.8666,-1.8676,-1.8673,-1.8675,-1.8624,-1.8614,-1.8678,-1.8678,-1.8678,-1.8678,-1.8678,-1.8678,-1.8462,-1.8494,-1.8495,-1.8532,-1.8539,-1.8565,-1.8575,-1.8588,-1.8599,-1.8631,-1.865,-1.8656,-1.8668,-1.8692,-1.8713,-1.8715,-1.8724,-1.8734,-1.8735,-1.8686,-1.8679,-1.8673,-1.8664,-1.8737,-1.8737,-1.8784,-1.8785,-1.8785]},{"header":{"parameterUnit":"m.s-1","parameterCategory":1,"la1":30.2991,"la2":30.254,"lo1":-89.0895,"lo2":-89.0444,"dx":0.0017,"dy":0.0017,"nx":28,"ny":28,"refTime":"2023-01-17T09:00:00:Z","depth":0,"parameterNumber":3,"parameterNumberName":"V-component_of_WINDS"},"data":[0,0,0,0,0,0,0,0,0,0,0,0,0,0,0,0,0,0,0,0,0,0,0,0,0,0,0,0,0,0,0,0,0,0,0,0,0,0,0,0,0,0,0,0,0,0,0,0,0,0,0,0,0,0,0,0,0,0,1.9566,1.9566,0,1.9601,1.9602,1.9602,1.9582,1.9582,1.9581,1.958,1.9618,1.9619,1.9621,0,0,0,0,0,0,0,0,0,0,0,0,0,1.9483,1.9485,1.9566,1.9566,1.9567,1.9601,1.9602,1.9602,1.9583,1.9581,1.958,1.9579,1.9617,1.9619,1.9621,0,0,0,0,0,0,0,0,0,0,0,0,0,1.9519,1.9485,1.9566,1.9561,1.9561,1.9601,1.9602,1.9602,1.9583,1.9581,1.958,1.9579,1.9616,1.9619,1.9622,1.9669,0,0,1.9631,1.9632,0,0,0,0,0,0,0,0,1.9517,1.9522,1.9561,1.9561,1.9561,1.9586,1.9587,1.9625,1.9583,1.9575,1.958,1.9578,1.9608,1.9612,1.9622,1.9671,1.9673,1.9631,1.9633,1.9634,1.9635,0,0,0,0,0,0,0,1.9515,1.9521,1.958,1.9562,1.9562,1.9558,1.9561,1.9594,1.9599,1.9575,1.9574,1.9578,1.9608,1.9619,1.9622,1.9673,1.9631,1.9633,1.9635,1.9636,1.9766,1.9768,0,0,0,0,0,0,1.9512,1.9519,1.9579,1.9581,1.9535,1.9561,1.9564,1.958,1.9599,1.96,1.958,1.9577,1.9615,1.9619,1.9624,1.9683,1.9634,1.9637,1.9638,1.9765,1.9767,1.9769,0,0,0,0,0,0,1.951,1.9518,1.9577,1.9549,1.9557,1.9564,1.9581,1.9581,1.9592,1.9602,1.9603,1.959,1.9614,1.962,1.9659,1.9684,1.9638,1.964,1.9763,1.9765,1.9768,1.9801,0,0,0,0,0,0,1.9508,1.9517,1.9535,1.955,1.9558,1.9611,1.9582,1.9583,1.9597,1.9594,1.9612,1.9613,1.9613,1.9655,1.9662,1.9688,1.9643,1.976,1.9764,1.9767,1.9798,1.9805,1.9811,0,0,0,0,0,1.9505,1.9542,1.9536,1.9543,1.958,1.9612,1.9617,1.9616,1.9599,1.9617,1.9624,1.9613,1.968,1.9659,1.9666,1.9694,1.9759,1.9763,1.9767,1.9795,1.9803,1.981,0,0,0,0,0,0,1.953,1.9544,1.9537,1.958,1.9595,1.9609,1.9632,1.9624,1.9645,1.9642,1.9639,1.9643,1.9685,1.9692,1.9669,1.9742,1.9717,1.9722,1.9736,1.9744,1.975,1.9749,1.9645,0,0,0,0,0,1.954,1.9564,1.9576,1.9612,1.9621,1.9625,1.9639,1.9637,1.9653,1.9659,1.9669,1.9685,1.971,1.9727,1.975,1.9798,1.9804,1.9821,1.9827,1.9832,1.9838,1.9867,1.9876,1.9781,1.9781,1.9781,0,0,1.9562,1.9573,1.9588,1.9618,1.9629,1.9656,1.9631,1.9659,1.968,1.9664,1.9702,1.971,1.9728,1.9773,1.9793,1.9781,1.9865,1.9837,1.9841,1.9844,1.9872,1.9881,1.9889,1.9784,1.9784,1.9783,0,0,1.9616,1.9625,1.9659,1.9671,1.9689,1.9692,1.97,1.9715,1.972,1.9758,1.9748,1.9772,1.9814,1.9829,1.9842,1.9903,1.9895,1.991,1.9944,1.9973,1.998,1.9987,2.0013,2.0021,1.9915,1.9916,1.9916,0,1.9641,1.9681,1.9677,1.9707,1.9722,1.9708,1.9743,1.9755,1.978,1.9791,1.9776,1.9831,1.9842,1.9892,1.9907,1.9916,1.9928,1.991,1.9979,1.9986,1.9992,2.0017,2.0026,1.9918,1.9917,1.9917,1.9917,0,1.9713,1.974,1.9765,1.979,1.9807,1.9839,1.9842,1.9859,1.9855,1.986,1.9901,1.9914,1.9941,1.9952,1.9948,2.0002,1.9994,1.9979,1.9955,2.0004,2.0027,2.0036,1.9921,1.992,1.9919,1.9919,0,0,1.9784,1.9807,1.9817,1.983,1.9849,1.9871,1.9903,1.993,1.9947,1.9964,1.9993,2.003,2.0017,2.0032,2.0029,2.0054,2.0106,2.0037,2.0037,2.0053,2.0171,2.0184,2.0195,2.01,2.0101,2.0103,2.017,0,1.9843,1.99,1.9898,1.9952,1.9979,1.9966,1.9995,2.0011,2.0016,2.0041,2.0047,2.0075,2.0054,2.0063,2.0087,2.0095,2.0131,2.0089,2.013,2.0131,2.0129,2.0206,2.022,2.0284,2.0179,2.018,2.0181,0,1.9919,1.994,1.9996,2.0014,2.0025,2.0051,2.0077,2.01,2.0118,2.0121,2.0138,2.0132,2.0167,2.0139,2.0189,2.0161,2.0177,2.0183,2.0186,2.0192,2.0162,2.0218,2.0303,2.0315,2.0195,2.0194,2.0193,0,1.997,2.0012,2.0053,2.0063,2.0084,2.0103,2.0112,2.0129,2.0146,2.0168,2.018,2.0205,2.022,2.0241,2.0243,2.0222,2.0295,2.0266,2.03,2.0301,2.0319,2.0318,2.0411,2.0323,2.0323,2.0323,2.0322,0,2.0038,2.0074,2.0077,2.0102,2.0143,2.014,2.0181,2.0188,2.0204,2.0232,2.0221,2.0247,2.0247,2.0274,2.0275,2.0319,2.0324,2.0329,2.033,2.0333,2.0333,2.0346,2.0343,2.0325,2.0324,2.0324,2.0324,0,2.0103,2.0106,2.015,2.0166,2.0171,2.0201,2.0215,2.024,2.0244,2.028,2.0288,2.0296,2.0327,2.0331,2.0367,2.0368,2.0422,2.0415,2.0416,2.0416,2.0452,2.045,2.056,2.0576,2.0473,2.0474,2.0475,0,2.0148,2.0176,2.0195,2.0213,2.0224,2.0252,2.027,2.0268,2.0287,2.0311,2.0334,2.0365,2.039,2.0441,2.0451,2.048,2.0477,2.0513,2.0481,2.0484,2.0482,2.0482,2.0487,2.052,2.0522,2.0522,2.0523,0,2.0228,2.0229,2.0254,2.0281,2.0302,2.0323,2.0343,2.0358,2.0359,2.0381,2.0414,2.0433,2.0471,2.0503,2.0532,2.0543,2.0535,2.0533,2.0543,2.0548,2.0549,2.0553,2.0437,2.0531,2.053,2.053,2.0529,2.0529,2.0288,2.0313,2.0332,2.0361,2.0376,2.0395,2.042,2.0428,2.0455,2.0486,2.0483,2.052,2.054,2.0577,2.059,2.062,2.0608,2.0622,2.0626,2.0631,2.0637,2.0541,2.0625,2.0625,2.0624,2.0624,2.0624,0,2.0371,2.0382,2.0409,2.0438,2.0462,2.045,2.0471,2.0493,2.0525,2.0544,2.0569,2.0608,2.0639,2.0651,2.0682,2.0704,2.0701,2.0713,2.0713,2.0717,2.0643,2.0633,2.0715,2.0714,2.0714,2.0714,2.0714,2.0714,2.0418,2.0461,2.0464,2.0515,2.0526,2.0563,2.0576,2.0595,2.061,2.0654,2.068,2.0687,2.0704,2.0737,2.0765,2.0768,2.0782,2.0796,2.0798,2.073,2.0721,2.0712,2.0703,2.0798,2.0798,2.0869,2.0869,2.087]}]]